AA2YS Weather Reports


Display with metric or nautical units.
time (UTC)temp
F
wind
direction
speed
MPH
gust
MPH
rain 1hr
in
rain 24hr
in
rain mn
in
humidity
%
barometer
mb
20260506102540 46 0.0 2.0 0.07 0.86 0.63 93 1008.3
20260506101519 46 0.0 0.0 0.07 0.85 0.62 93 1008.3
20260506100520 46 0.0 0.0 0.07 0.84 0.61 93 1008.5
20260506095520 46 0.0 3.0 0.06 0.83 0.60 93 1008.2
20260506094519 46 0.0 0.0 0.05 0.81 0.58 93 1008.4
20260506094126 46 0.0 1.0 0.04 0.80 0.57 93 1008.3
20260506093846 47 0.0 0.0 0.05 0.80 0.57 93 1008.3
20260506092519 47 0.0 1.0 0.05 0.79 0.56 93 1008.1
20260506091519 47 0.0 1.0 0.05 0.78 0.55 93 1008.0
20260506090520 47 0.0 3.0 0.06 0.77 0.54 93 1007.7
20260506085520 47 68 1.0 5.0 0.07 0.77 0.54 93 1008.0
20260506084519 47 0.0 5.0 0.09 0.76 0.53 93 1008.0
20260506083539 47 0.0 2.0 0.10 0.75 0.52 93 1008.6
20260506082520 47 0.0 4.0 0.12 0.74 0.51 93 1008.4
20260506081519 47 0.0 3.0 0.13 0.73 0.50 93 1008.0
20260506080519 47 0.0 2.0 0.13 0.71 0.48 93 1008.3
20260506073520 48 0.0 2.0 0.15 0.65 0.42 92 1008.4
20260506072519 48 0.0 2.0 0.15 0.62 0.39 92 1008.3
20260506071540 48 0.0 2.0 0.15 0.60 0.37 92 1008.0
20260506070520 48 90 1.0 7.0 0.18 0.59 0.35 92 1008.1
20260506061519 49 0.0 1.0 0.13 0.46 0.22 92 1008.5
20260506060519 49 0.0 5.0 0.10 0.41 0.17 92 1008.8
20260506050519 49 0.0 1.0 0.06 0.31 0.07 92 1009.1
20260506044520 49 0.0 1.0 0.05 0.28 0.04 91 1009.0
20260506043519 49 0.0 1.0 0.05 0.27 0.03 91 1009.0
20260506042519 49 0.0 1.0 0.05 0.26 0.02 91 1008.7
20260506041519 49 0.0 0.0 0.05 0.26 0.02 90 1008.6
20260506040520 49 0.0 2.0 0.04 0.25 0.01 90 1008.7
20260506035518 49 0.0 0.0 0.03 0.24 0.24 90 1009.0
20260506034538 49 0.0 0.0 0.03 0.23 0.23 90 1009.1
20260506033518 49 0.0 0.0 0.02 0.22 0.22 90 1009.3
20260506032518 49 0.0 0.0 0.01 0.21 0.21 89 1009.5
20260506031538 49 0.0 0.0 0.02 0.21 0.21 89 1009.0
20260506030519 49 0.0 0.0 0.02 0.21 0.21 89 1009.2
20260506025518 50 0.0 0.0 0.03 0.21 0.21 88 1009.3
20260506024518 50 0.0 1.0 0.03 0.20 0.20 88 1009.2
20260506023518 50 0.0 0.0 0.05 0.20 0.20 87 1009.3
20260506022518 50 0.0 0.0 0.06 0.20 0.20 86 1009.4
20260506021518 50 0.0 0.0 0.05 0.19 0.19 86 1009.6
20260506020538 50 0.0 3.0 0.05 0.19 0.19 85 1009.6
20260506015518 50 0.0 0.0 0.05 0.18 0.18 85 1009.6
20260506014519 50 0.0 2.0 0.04 0.17 0.17 85 1009.4
20260506013518 50 0.0 0.0 0.03 0.15 0.15 83 1009.5
20260506012538 50 0.0 0.0 0.02 0.14 0.14 82 1009.5
20260506011518 50 0.0 0.0 0.02 0.14 0.14 83 1009.3
20260506010518 50 0.0 0.0 0.03 0.14 0.14 82 1008.9
20260506005518 50 0.0 0.0 0.02 0.13 0.13 82 1008.8
20260506004538 51 0.0 0.0 0.03 0.13 0.13 81 1008.5
20260506003518 51 0.0 0.0 0.02 0.12 0.12 81 1008.9
20260506002518 51 0.0 0.0 0.03 0.12 0.12 78 1008.4
20260506001518 51 0.0 0.0 0.05 0.12 0.12 79 1008.3
20260506000518 52 0.0 0.0 0.05 0.11 0.11 78 1008.3
20260505235518 52 0.0 0.0 0.06 0.11 0.11 78 1008.4
20260505234518 52 0.0 0.0 0.06 0.10 0.10 77 1008.4
20260505233518 53 0.0 0.0 0.07 0.10 0.10 75 1008.4
20260505232518 54 0.0 0.0 0.08 0.09 0.09 75 1008.6
20260505231518 54 0.0 4.0 0.06 0.07 0.07 74 1008.7
20260505230518 55 0.0 1.0 0.05 0.06 0.06 71 1008.2
20260505225518 56 0.0 1.0 0.04 0.05 0.05 70 1008.0
20260505224539 57 0.0 2.0 0.03 0.04 0.04 68 1008.2
20260505223538 58 225 1.0 5.0 0.02 0.03 0.03 67 1008.1
20260505222518 59 248 1.0 5.0 0.00 0.01 0.01 62 1007.9
20260505221518 61 270 1.0 9.0 0.00 0.01 0.01 59 1007.7
20260505220519 62 270 4.0 10.0 0.00 0.01 0.01 59 1007.5
20260505215518 64 270 3.0 11.0 0.00 0.01 0.01 58 1006.7
20260505214518 66 225 2.0 8.0 0.00 0.01 0.01 59 1006.3
20260505213518 67 225 2.0 6.0 0.00 0.01 0.01 62 1005.5
20260505212518 68 225 1.0 5.0 0.00 0.01 0.01 63 1005.1
20260505211518 68 225 4.0 8.0 0.00 0.01 0.01 61 1004.7
20260505210518 68 225 4.0 12.0 0.00 0.01 0.01 60 1004.8
20260505205519 69 225 5.0 13.0 0.00 0.01 0.01 60 1004.8
20260505204518 69 203 3.0 8.0 0.00 0.01 0.01 60 1004.6
20260505203518 69 225 3.0 9.0 0.00 0.01 0.01 59 1004.5
20260505202538 70 225 2.0 8.0 0.00 0.01 0.01 59 1004.4
20260505201518 70 248 2.0 10.0 0.00 0.01 0.01 60 1004.2
20260505200518 70 225 3.0 9.0 0.00 0.01 0.01 59 1004.3
20260505195518 71 225 4.0 10.0 0.00 0.01 0.01 58 1004.6
20260505194518 71 225 2.0 6.0 0.00 0.01 0.01 57 1004.5
20260505193518 72 203 2.0 6.0 0.00 0.01 0.01 58 1004.3
20260505192518 72 248 1.0 5.0 0.00 0.01 0.01 60 1004.2
20260505191518 71 225 4.0 12.0 0.00 0.01 0.01 58 1004.3
20260505190518 71 225 4.0 10.0 0.00 0.01 0.01 56 1004.3
20260505185518 72 225 5.0 11.0 0.00 0.01 0.01 57 1004.3
20260505184518 72 225 4.0 11.0 0.00 0.01 0.01 56 1004.0
20260505183518 73 225 4.0 14.0 0.00 0.01 0.01 55 1003.9
20260505182518 74 203 2.0 8.0 0.00 0.01 0.01 55 1003.7
20260505181518 73 225 2.0 6.0 0.00 0.01 0.01 56 1003.7
20260505180518 72 225 5.0 11.0 0.00 0.01 0.01 55 1003.8
20260505175518 73 225 3.0 8.0 0.00 0.01 0.01 55 1003.9
20260505174518 73 248 2.0 11.0 0.00 0.01 0.01 55 1003.7
20260505173518 73 225 4.0 8.0 0.00 0.01 0.01 57 1003.7
20260505172518 73 225 5.0 13.0 0.00 0.01 0.01 56 1003.6
20260505171518 72 248 4.0 12.0 0.00 0.01 0.01 58 1003.5
20260505170518 70 225 2.0 7.0 0.00 0.01 0.01 61 1003.3
20260505165518 70 225 4.0 9.0 0.00 0.01 0.01 58 1003.6
20260505164538 71 180 4.0 20.0 0.00 0.01 0.01 56 1003.6
20260505163518 72 225 6.0 16.0 0.00 0.01 0.01 54 1003.6
20260505162518 73 225 3.0 9.0 0.00 0.01 0.01 53 1003.4
20260505161518 73 225 3.0 9.0 0.00 0.01 0.01 54 1003.3
20260505160518 72 23 2.0 7.0 0.00 0.01 0.01 56 1003.1
20260505152538 73 203 3.0 11.0 0.00 0.01 0.01 55 1002.0
20260505151538 73 270 1.0 5.0 0.00 0.01 0.01 56 1002.1
20260505150538 72 248 2.0 7.0 0.00 0.01 0.01 55 1002.3
20260505140521 71 180 2.0 7.0 0.00 0.01 0.01 59 1002.1
20260505124540 69 158 3.0 14.0 0.00 0.01 0.01 60 1001.9
20260505123518 69 180 3.0 12.0 0.00 0.01 0.01 63 1001.8
20260505122540 68 225 2.0 10.0 0.00 0.01 0.01 63 1001.7
20260505121520 68 248 4.0 8.0 0.00 0.01 0.01 64 1001.6
20260505120520 67 180 4.0 12.0 0.00 0.01 0.01 65 1001.7
20260505115520 66 180 2.0 9.0 0.00 0.01 0.01 67 1001.8
20260505114520 66 225 1.0 7.0 0.00 0.01 0.01 68 1001.9
20260505113520 65 158 1.0 7.0 0.00 0.01 0.01 69 1001.7
20260505112520 65 180 1.0 7.0 0.00 0.01 0.01 70 1001.6
20260505111520 64 203 2.0 7.0 0.00 0.01 0.01 71 1001.5
20260505110520 63 248 2.0 4.0 0.00 0.01 0.01 72 1001.3